Weather in Tarashany

Ukraine / Chernovtci District     48°07′06″N   26°00′48″E
temp.,
°C
wind,
m/s
gust,
m/s
humid.,
%
clouds,
%
prec.,
mm/h
press.,
hPa
HPBL,
m
1 march, mon
mon123:00+2nw41375100 0.0 1028960
02:00+1nw61198100 3.1 1027531
05:00+1nw51097100 2.8 1028492
08:00+1nnw61097100 3.3 1030632
11:00+2nnw5997100 1.1 1031592
14:00+3n5887100 1.6 1032774
17:00+3nw478992 0.3 1033585
20:00+2nw398896 0.4 1034470
2 march, tue
tue223:00+1wnw4896100 0.1 1035302
02:000wnw359165 0.1 103697
05:00−1w348629 0.0 103472
08:000w247615 0.0 1034139
11:00+6wnw485511 0.0 1032474
14:00+9nw611506 0.0 1030746
17:00+8nw410620 0.0 1028295
20:00+5nw39770 0.0 1030190
3 march, wed
wed323:00+4nw619720 0.0 1031610
02:00+3nw616770 0.0 1031473
05:00+2nw513830 0.0 1031388
08:00+2nw310854 0.0 1032396
11:00+5nnw587955 0.0 1032699
14:00+7nnw467372 0.0 1030734
17:00+6n347724 0.0 1028425
20:00+3sse129012 0.0 102922
4 march, thu
thu423:00+2s33910 0.0 102852
02:00+1s23880 0.0 102639
05:00+1ssw22765 0.0 102322
08:00+3sw33664 0.0 102175
11:00+11w47401 0.0 1018720
14:00+13wnw46383 0.0 10161428
17:00+11w24536 0.0 1014122
20:00+5sw34663 0.0 101548
5 march, fri
fri523:00+4sw34670 0.0 101565
02:00+4sw336736 0.0 101439
05:00+4ssw456967 0.0 101267
08:00+6sw476676 0.0 1012116
11:00+9ssw4756100 0.0 1010291
14:00+11wsw0344100 0.0 1008739
17:00+9w71157100 0.0 1009802
20:00+5wnw348180 0.1 1011124